Location: Gand�
(15.0971°N, 12.6564°W)
Time: 02:04:06
(UTC+00:00)

Cosmos 1844 Rocket - Pass Details

Date: 07 August 2020
Orbit: 824 x 844 km, 71.0° (Epoch: 23 September)

Event Time Altitude Azimuth Distance (km) Brightness Sun altitude
Exits shadow 06:08:49 - 252° (WSW) 2,605 4.5 -6.8°
Reaches altitude 10° 06:09:39 10° 259° (W) 2,427 4.4 -6.6°
Maximum altitude 06:12:37 15° 292° (WNW) 2,114 4.3 -5.9°
Drops below altitude 10° 06:15:36 10° 324° (NW) 2,423 4.9 -5.2°
Sets 06:19:12 0° 348° (NNW) 3,354 5.9 -4.4°
